Hourly Data Report for March 12, 2003

SHERBROOKE A
QUEBEC

45°26'00.000" N
71°41'00.000" W
241.40 m
7028124
71610
YSC

Download Data

Hourly Data (March 2003)
Hourly Data Report for March 12, 2003
TIME
LST
Temp Definition
°C
Dew Point Definition
°C
Rel Hum Definition
%
Precip. Amount Definition
mm

Wind Dir Definition
10's deg

Wind Spd Definition
km/h
Visibility Definition
km
Stn Press Definition
kPa
Hmdx Definition


Wind Chill Definition


Weather Definition


00:00 -4.7 -13.4 51   18 4 15.0 98.03   -6  
01:00 -3.3 -13.0 47   23 7 15.0 98.02   -6  
02:00 -3.0 -12.9 46   19 7 15.0 97.94   -6  
03:00 -2.4 -12.0 48   21 24 15.0 97.88   -9  
04:00 -3.6 -7.8 73   21 11 8.0 97.90   -8 Snow
05:00 -3.5 -7.4 74   21 13 5.6 97.92   -8 Snow
06:00 -3.4 -6.7 78   20 11 1.6 97.93   -8 Snow
07:00 -2.9 -6.1 79   21 7 1.8 97.96   -6 Snow
08:00 -1.9 -5.3 78   21 11 3.2 97.97   -6 Snow
09:00 -1.2 -4.7 77   21 15 6.4 97.98   -6 Snow
10:00 -0.5 -3.9 78   21 15 1.2 97.96   -5 Snow
11:00 -0.1 -3.0 81   23 9 3.2 97.95   -3 Snow
12:00 0.2 -2.7 81   24 9 3.2 97.95     Snow
13:00 0.7 -2.4 80   24 19 3.2 97.91     Snow
14:00 1.1 -3.4 72   23 20 3.2 97.91     Snow
15:00 -0.2 -3.0 81   27 24 4.0 97.99   -6 Snow
16:00 -1.5 -5.0 77   28 28 8.0 98.07   -8 Snow
17:00 -2.0 -7.3 67   27 22 12.9 98.15   -8 Snow
18:00 -2.4 -8.6 62   25 13 15.0 98.29   -7  
19:00 -3.2 -10.3 58   26 13 15.0 98.46   -8  
20:00 -4.0 -11.2 57   27 11 15.0 98.57   -8  
21:00 -5.8 -13.6 54   29 15 15.0 98.64   -12  
22:00 -6.9 -14.5 55   28 17 15.0 98.77   -13  
23:00 -8.6 -15.4 58   31 9 15.0 98.86   -13  

Notes on Data Quality.

Legend

  • E = Estimated
  • M = Missing
  • NA = Not Available*
  • [empty] = Indicates an unobserved value
Date modified: